Wetbulb
75.78 76.82 77.20 73.78 61.70 59.25 56.66 58.54 63.22 62.46 63.63 67.38 67.87 66.54 65.98 67.19 64.87 61.74 73.85 75.71 75.54 75.12 76.69 77.09 78.69 79.17 79.08 79.21 78.83 78.87 78.73 79.06 79.25 79.30 79.16 78.96 78.96 78.52 78.55 79.00 78.75 78.70 78.20 77.99 77.87 77.81 77.81 77.56 77.58
76.74 75.13 75.28 69.54 57.06 54.70 57.37 61.12 60.37 62.91 66.94 69.15 68.39 67.68 66.60 64.88 69.66 70.38 72.52 76.26 76.31 75.93 76.64 77.45 77.73 78.65 79.09 79.13 79.28 79.25 78.54 78.78 79.38 79.27 79.17 79.28 78.88 78.70 78.68 78.17 78.19 78.28 78.14 77.76 77.51 77.48 77.62 77.21 77.10
75.57 75.39 70.72 61.34 58.01 54.45 57.06 62.15 63.94 65.96 66.90 65.00 66.14 68.95 67.08 66.12 70.45 71.86 75.46 76.61 76.49 76.36 76.93 78.24 78.57 79.10 79.13 78.93 79.35 78.85 78.86 79.18 79.01 78.91 79.10 78.92 78.67 78.62 78.26 77.92 77.98 77.90 77.62 77.59 77.48 77.37 77.23 76.76 76.60
75.46 73.49 70.48 59.28 57.44 60.51 61.54 63.77 65.30 64.27 65.18 66.63 66.53 65.18 69.72 72.72 71.65 73.90 76.38 76.57 76.23 77.79 78.37 77.41 78.08 79.14 79.36 79.69 78.94 78.37 78.42 79.11 79.45 79.36 79.07 78.54 78.04 78.04 77.96 77.93 77.90 77.62 77.43 77.29 77.10 76.98 76.65 76.18 76.21
75.10 70.99 59.38 58.23 60.02 62.36 64.09 64.29 63.88 62.52 63.10 64.52 65.60 64.14 67.22 72.40 74.48 75.31 76.17 76.60 76.37 76.78 78.22 78.43 78.77 79.30 79.04 79.75 78.71 78.83 78.26 78.48 79.07 78.74 78.00 77.98 77.82 77.68 77.60 77.21 77.16 77.10 77.04 76.79 76.73 76.57 76.31 76.31 75.95
68.75 67.65 57.29 55.96 59.94 63.60 65.39 66.23 64.06 63.98 65.39 65.84 65.54 66.25 68.06 73.74 73.34 74.94 76.01 76.21 77.04 77.17 78.06 78.63 78.23 78.97 79.36 78.84 78.42 79.47 79.16 78.60 79.06 78.64 77.92 77.85 77.74 77.51 77.26 76.91 76.96 76.71 76.40 76.21 76.15 76.13 75.98 76.13 76.32
65.61 61.96 57.33 58.12 60.60 62.32 64.46 67.33 64.07 63.60 64.29 65.03 67.97 64.91 67.87 71.44 73.79 75.14 75.80 76.54 75.86 77.10 77.15 78.25 78.41 78.78 78.74 78.98 78.58 79.11 79.18 78.59 78.69 78.24 77.98 77.67 77.75 77.53 77.21 77.04 76.49 76.15 75.92 75.95 76.12 76.43 75.93 75.92 76.48
68.23 63.20 57.53 58.44 57.74 60.73 66.07 66.18 66.63 65.63 65.35 69.92 69.60 64.32 65.90 70.78 74.06 74.77 75.38 75.69 75.90 76.11 76.05 77.11 77.84 78.07 78.49 78.30 78.38 77.98 78.06 78.15 77.87 77.75 77.72 77.74 77.67 77.34 77.54 76.95 77.10 76.63 76.48 76.98 77.07 77.63 76.60 76.29 75.93
67.39 58.94 56.15 57.03 58.36 62.60 66.95 65.16 68.54 69.25 68.80 69.60 70.10 68.95 71.71 73.04 73.88 73.47 73.56 74.25 75.17 75.49 76.57 77.54 77.51 77.94 78.30 78.14 78.00 77.90 77.74 77.64 77.35 77.38 77.29 77.46 76.63 77.75 77.58 78.08 76.71 76.57 76.93 76.99 77.13 77.29 77.37 76.75 76.70
62.20 58.22 57.30 61.56 62.32 63.95 65.68 66.12 67.43 67.34 68.60 68.47 69.46 71.97 72.65 72.45 72.43 71.70 71.67 72.08 73.55 74.52 75.43 76.36 76.97 77.57 78.10 77.28 78.36 77.98 77.32 76.74 76.72 77.19 78.00 77.10 77.64 78.19 77.82 77.74 76.68 77.13 77.26 77.38 77.51 76.65 76.89 75.84 75.67
60.09 57.56 62.87 64.54 65.63 66.76 66.18 66.50 67.68 66.00 65.08 68.87 68.22 69.98 71.18 71.29 71.53 71.39 71.70 72.31 72.90 74.67 75.37 76.30 77.20 77.87 77.32 77.22 77.45 77.18 77.24 77.09 77.28 78.42 78.37 78.11 77.67 77.72 77.24 76.59 77.08 77.02 77.33 76.11 76.89 76.71 76.21 75.03 75.32
58.56 64.96 65.34 66.75 67.06 66.17 65.14 67.12 67.56 68.32 68.15 71.26 71.16 71.69 71.52 70.77 70.47 70.75 71.20 72.00 72.84 74.05 74.91 76.40 77.51 77.90 78.17 77.58 76.91 77.02 76.86 77.02 76.64 77.13 78.66 78.60 76.77 76.57 76.37 76.04 76.19 76.36 75.93 75.78 75.92 75.93 75.90 75.90 75.35
62.31 65.46 67.24 67.82 66.79 66.36 65.82 65.66 67.56 68.39 70.76 72.04 72.08 71.95 71.58 71.31 71.31 71.94 72.40 72.79 73.49 73.74 75.07 76.04 77.31 77.43 77.92 78.06 77.00 76.70 76.75 76.23 76.32 76.61 77.27 77.39 76.44 76.17 76.24 76.87 76.29 75.54 75.93 76.09 76.49 75.93 75.76 75.68 74.74
64.89 66.09 66.20 66.07 64.45 64.67 63.53 64.97 65.58 69.43 71.68 71.09 71.26 71.38 72.01 71.90 72.23 72.26 72.08 72.04 73.11 73.87 74.54 76.22 77.14 77.87 77.92 78.60 78.39 78.33 77.22 77.51 76.81 76.34 76.64 77.86 77.29 76.31 75.93 76.49 75.58 75.60 75.90 76.81 76.11 77.37 75.79 75.38 75.15
66.57 63.94 65.71 64.84 65.80 63.35 63.99 62.00 64.29 70.25 71.49 70.27 70.54 71.53 72.08 72.70 73.35 73.28 74.01 73.89 74.83 75.20 75.74 76.04 77.02 77.59 77.23 77.35 78.13 77.82 77.22 76.67 76.27 76.23 77.42 77.63 78.31 77.21 77.62 75.66 75.26 76.20 76.02 75.98 75.81 76.16 75.86 75.25 75.08
62.09 62.38 59.11 63.80 65.36 64.52 66.04 58.75 65.64 69.39 69.64 69.05 70.03 70.97 71.52 72.47 73.22 74.21 74.91 75.44 76.08 76.19 76.68 77.50 77.56 77.31 77.15 77.67 78.50 77.51 77.20 76.87 76.12 75.75 75.93 76.83 77.58 77.49 77.35 74.44 74.84 75.79 76.03 74.96 74.62 76.19 74.23 74.60 74.20
60.05 55.48 56.66 60.36 65.82 64.30 63.98 60.42 65.64 68.37 67.83 67.86 69.30 70.36 71.06 72.04 73.18 74.41 75.00 75.93 76.21 76.22 76.92 77.60 77.98 77.40 77.31 77.92 77.94 77.53 77.81 76.80 76.70 76.48 77.53 77.52 77.54 77.43 77.16 76.53 74.27 75.88 74.42 74.11 73.71 74.05 74.40 74.90 74.67
53.70 54.75 56.73 57.08 62.44 63.78 61.59 62.59 64.69 66.98 66.60 66.67 68.40 69.35 70.30 70.73 71.77 74.07 74.96 75.59 76.55 77.30 77.84 77.85 77.56 78.04 78.50 77.95 78.31 79.42 79.05 80.04 79.94 79.10 77.06 77.64 77.37 77.01 77.01 75.73 75.68 75.82 74.20 73.40 73.42 74.56 74.56 73.93 73.41
55.14 54.50 55.59 58.05 61.48 61.40 61.07 63.24 63.55 65.60 66.24 65.76 66.26 68.52 69.31 70.17 72.28 73.76 74.85 75.71 75.89 76.42 76.81 77.40 77.36 77.83 77.64 76.90 76.46 76.07 75.51 76.48 76.99 76.96 77.67 77.70 77.65 77.42 77.40 77.37 76.12 77.31 75.89 75.03 75.32 74.84 73.34 72.60 73.69
54.40 53.47 54.07 58.65 61.48 61.87 62.80 62.60 65.03 65.52 64.45 66.16 66.27 67.83 68.79 70.27 71.41 73.17 74.22 75.04 75.49 75.92 76.63 77.16 77.57 78.33 78.25 77.49 78.47 77.27 76.38 75.86 76.03 77.30 77.07 76.41 75.91 76.10 75.39 75.40 74.45 74.89 73.86 74.41 74.48 74.86 72.92 71.92 74.01
54.78 53.72 54.17 55.65 61.24 62.60 62.54 61.06 63.84 65.94 66.92 67.11 68.23 69.02 70.11 70.29 70.78 72.14 72.94 74.11 75.09 75.36 76.30 76.82 77.64 77.89 78.36 77.81 77.05 75.10 73.77 74.40 72.38 73.34 72.75 74.76 74.78 74.52 74.45 74.34 74.21 74.23 73.70 72.52 73.69 73.56 72.59 71.00 72.08
53.37 56.81 55.83 56.01 58.97 53.99 61.93 52.20 62.38 64.63 65.29 66.52 67.16 68.91 69.65 70.70 71.66 72.19 72.52 73.60 74.17 75.14 76.68 78.43 78.76 78.25 76.57 74.89 73.65 72.68 69.44 68.78 70.51 71.08 71.50 72.67 73.02 73.13 73.39 73.54 73.54 74.02 73.15 72.70 72.63 72.47 72.27 72.51 70.53
55.08 59.13 58.31 58.35 58.69 58.18 59.50 55.51 57.42 64.14 63.16 64.92 66.92 67.88 68.91 70.53 71.55 71.61 71.71 72.91 74.15 75.97 76.66 76.77 76.12 74.98 74.08 73.59 72.53 69.81 70.01 69.74 70.30 69.86 70.56 71.77 72.06 72.40 72.30 73.10 72.48 72.81 72.17 72.61 71.92 71.55 72.15 72.52 71.38
60.49 59.98 59.26 59.16 56.44 51.41 54.29 54.94 53.11 57.64 62.23 64.24 66.98 68.41 69.23 69.99 71.16 72.42 72.71 73.67 74.61 75.20 74.53 73.32 73.63 73.47 73.20 71.15 70.75 70.60 69.78 69.34 68.32 69.13 68.72 68.63 69.44 70.43 71.89 71.20 71.31 71.57 71.38 71.33 71.25 71.92 71.73 72.61 72.64
58.13 55.39 49.62 48.45 48.44 47.91 54.96 53.33 54.25 57.92 63.24 64.60 65.62 68.19 69.66 70.06 70.51 71.38 72.51 73.05 73.30 73.44 72.12 71.56 72.56 72.40 72.71 69.63 69.28 69.18 69.18 69.39 69.46 69.24 67.50 68.59 67.83 68.10 68.85 69.67 69.46 69.22 70.45 70.54 70.86 71.48 71.09 70.58 71.10
55.02 54.00 49.82 44.46 45.61 47.95 54.78 49.45 54.55 61.76 63.70 64.60 66.71 68.64 69.79 69.60 70.08 71.06 72.79 72.67 72.95 72.34 71.50 71.15 71.99 71.77 70.84 69.76 70.13 70.80 70.28 68.42 68.56 69.11 68.59 67.56 67.22 67.57 69.09 69.08 69.20 69.35 69.48 69.70 69.82 69.42 69.48 70.55 71.20
54.69 52.35 55.13 50.20 51.24 48.03 50.70 54.62 58.97 62.13 62.46 63.49 65.78 67.64 69.08 68.46 69.45 70.72 72.19 72.48 72.25 71.03 71.18 71.43 71.81 71.43 70.46 69.60 71.04 70.92 70.86 70.40 69.26 69.97 70.19 68.31 69.15 67.81 67.76 68.62 68.75 68.91 69.13 69.65 69.57 68.43 68.67 68.72 69.63
56.85 57.51 51.16 51.78 46.12 45.11 48.90 49.58 53.05 56.81 58.47 62.71 63.81 66.44 69.15 68.39 69.25 70.60 71.35 71.60 71.06 70.64 71.22 71.38 71.71 71.06 70.53 70.16 70.31 69.04 69.22 69.74 69.57 69.44 69.02 69.08 69.40 69.28 68.86 68.71 68.60 68.54 68.74 68.64 69.09 68.90 68.74 68.55 68.32
54.39 53.88 55.05 54.35 52.39 47.71 46.60 50.48 58.00 57.22 58.91 60.25 64.51 66.93 68.93 67.99 68.05 69.87 71.29 71.86 70.27 70.54 70.47 70.59 70.61 70.29 69.82 70.19 69.79 69.32 68.91 68.79 68.62 68.20 69.06 69.33 69.59 69.40 68.94 69.16 69.00 68.67 68.56 68.58 68.05 67.77 67.01 66.60 66.76
57.04 55.30 55.65 51.31 51.75 51.96 50.66 49.95 59.34 59.18 59.95 61.14 62.70 67.10 68.91 69.77 67.54 67.92 70.86 71.23 69.42 69.71 69.12 69.20 69.49 69.15 69.18 69.13 68.90 68.58 68.94 69.05 68.35 68.09 68.52 69.09 68.63 69.40 69.05 69.11 69.24 68.76 68.56 68.62 68.11 67.00 66.71 66.02 65.25
MSLP
1007.83 1007.10 1006.53 1005.23 1003.03 1002.68 1003.16 1004.33 1004.92 1005.41 1005.89 1006.64 1007.18 1006.95 1008.46 1009.04 1008.98 1011.10 1012.68 1013.58 1014.24 1014.46 1014.96 1015.60 1016.09 1016.14 1016.36 1016.50 1016.76 1016.94 1017.20 1017.42 1017.64 1017.81 1018.17 1018.48 1018.48 1018.46 1018.70 1018.56 1018.71 1018.82 1018.94 1019.03 1019.20 1019.18 1019.30 1019.40 1019.54
1006.92 1006.96 1005.66 1002.88 1001.81 1002.26 1003.59 1004.21 1004.73 1005.58 1006.60 1007.32 1007.70 1007.93 1008.38 1010.21 1010.85 1011.96 1012.97 1013.82 1014.40 1014.63 1014.82 1015.51 1016.47 1016.53 1016.66 1016.95 1017.07 1017.41 1017.59 1017.84 1017.99 1018.22 1018.37 1018.66 1018.82 1018.84 1018.94 1018.88 1019.00 1019.25 1019.21 1019.38 1019.45 1019.44 1019.48 1019.60 1019.70
1007.07 1006.71 1003.95 1001.88 1001.99 1002.28 1003.67 1004.69 1005.43 1006.29 1006.78 1006.99 1008.04 1008.54 1009.29 1011.38 1011.91 1012.24 1013.26 1014.04 1014.32 1015.04 1015.38 1016.12 1016.74 1016.88 1017.03 1017.13 1017.43 1017.81 1018.03 1018.24 1018.35 1018.54 1018.71 1018.83 1019.12 1019.01 1019.12 1019.17 1019.23 1019.46 1019.55 1019.71 1019.75 1019.65 1019.64 1019.72 1019.76
1006.27 1005.11 1003.41 1001.82 1002.62 1003.48 1004.23 1005.28 1005.98 1006.37 1007.06 1007.48 1008.24 1009.43 1011.15 1011.84 1012.34 1012.82 1013.67 1014.11 1014.75 1015.13 1015.50 1016.67 1016.84 1017.00 1017.24 1017.53 1017.67 1018.10 1018.32 1018.42 1018.63 1018.85 1019.01 1019.06 1019.27 1019.32 1019.32 1019.45 1019.42 1019.54 1019.75 1019.81 1019.88 1019.82 1019.90 1020.01 1019.91
1005.74 1003.29 1001.73 1002.10 1003.05 1003.89 1004.73 1005.33 1005.57 1006.18 1007.04 1007.76 1008.54 1009.89 1011.49 1012.77 1013.05 1013.56 1013.90 1014.23 1014.42 1015.03 1015.79 1016.51 1017.12 1017.38 1017.46 1017.65 1018.07 1018.30 1018.54 1018.77 1018.97 1019.16 1019.29 1019.40 1019.44 1019.54 1019.58 1019.73 1019.70 1019.75 1019.86 1019.88 1019.92 1019.94 1019.99 1020.10 1020.11
1003.15 1002.19 1001.11 1001.81 1003.18 1004.10 1004.87 1005.32 1005.61 1006.58 1007.69 1008.45 1009.35 1010.54 1012.53 1013.27 1013.49 1013.76 1014.00 1013.95 1014.05 1014.95 1015.70 1016.56 1017.44 1017.54 1017.78 1017.88 1018.25 1018.37 1018.70 1018.92 1019.12 1019.30 1019.49 1019.51 1019.58 1019.72 1019.76 1019.82 1019.86 1019.90 1020.01 1020.03 1020.06 1020.13 1020.11 1020.11 1020.14
1002.83 1000.91 1001.30 1001.93 1003.22 1003.91 1004.71 1005.14 1005.38 1006.48 1007.51 1008.44 1009.51 1010.54 1013.40 1013.30 1013.71 1013.99 1014.10 1014.19 1014.56 1015.08 1015.67 1016.41 1016.99 1017.71 1017.97 1018.13 1018.27 1018.56 1018.90 1019.13 1019.34 1019.50 1019.59 1019.67 1019.73 1019.81 1019.85 1019.91 1019.97 1019.99 1020.07 1020.08 1020.14 1020.13 1020.13 1020.12 1020.19
1002.71 1001.36 1001.33 1001.72 1002.23 1003.69 1004.73 1005.16 1005.70 1006.34 1007.89 1009.09 1009.37 1010.44 1012.60 1013.26 1013.80 1014.14 1014.37 1014.56 1015.49 1015.71 1016.55 1016.59 1016.99 1017.28 1017.58 1018.14 1018.60 1018.71 1019.05 1019.19 1019.47 1019.62 1019.69 1019.74 1019.76 1019.81 1019.82 1019.92 1019.90 1020.00 1020.03 1020.03 1020.06 1019.93 1020.08 1020.08 1020.06
1003.16 1000.96 1000.96 1001.82 1001.93 1003.60 1004.62 1005.13 1006.33 1006.91 1008.00 1009.18 1009.64 1009.88 1011.49 1013.18 1013.79 1014.17 1014.56 1014.76 1015.39 1015.75 1016.04 1016.34 1016.93 1017.23 1017.43 1017.81 1018.41 1018.99 1019.20 1019.38 1019.57 1019.63 1019.74 1019.80 1019.05 1018.99 1019.19 1019.18 1019.80 1020.02 1020.03 1019.98 1019.93 1019.92 1019.98 1020.07 1019.75
1002.11 1000.81 1001.62 1002.50 1002.58 1003.28 1004.37 1004.89 1006.09 1006.94 1008.08 1009.42 1010.09 1011.16 1012.44 1013.20 1013.81 1014.07 1014.41 1014.83 1015.27 1015.68 1016.03 1016.19 1016.28 1016.88 1017.42 1017.37 1018.17 1018.47 1018.56 1018.74 1018.95 1019.06 1019.13 1019.31 1018.75 1018.94 1019.07 1019.31 1019.76 1019.93 1019.88 1019.79 1019.76 1019.90 1019.82 1019.56 1019.02
1002.12 1001.65 1002.75 1003.24 1003.35 1003.71 1004.52 1005.33 1006.09 1006.55 1007.28 1008.86 1010.32 1011.52 1012.55 1013.22 1013.72 1014.14 1014.51 1014.95 1015.34 1015.73 1015.91 1016.18 1016.49 1017.03 1017.30 1017.34 1017.85 1018.02 1018.12 1018.19 1018.59 1019.06 1019.17 1018.91 1018.83 1018.87 1018.81 1018.70 1018.68 1018.75 1019.09 1018.81 1018.60 1018.69 1018.52 1018.72 1018.95
1002.43 1003.06 1003.21 1004.04 1004.15 1004.07 1004.56 1005.54 1006.89 1007.53 1008.60 1009.50 1010.82 1011.88 1012.60 1013.06 1013.49 1013.88 1014.36 1014.89 1015.39 1015.85 1016.11 1016.39 1016.77 1017.21 1017.42 1017.48 1017.81 1017.77 1017.82 1018.14 1018.28 1018.43 1019.11 1019.16 1018.96 1018.85 1019.05 1018.75 1018.73 1019.03 1018.88 1018.95 1018.93 1018.55 1018.88 1018.91 1018.74
1002.58 1003.56 1003.96 1004.26 1004.34 1004.79 1005.29 1006.31 1007.65 1008.86 1009.77 1010.61 1011.41 1012.14 1012.56 1012.89 1013.43 1013.85 1014.37 1014.91 1015.43 1015.78 1016.07 1016.46 1016.73 1017.26 1017.49 1017.84 1017.59 1017.68 1017.78 1017.97 1018.04 1018.33 1018.62 1018.87 1018.66 1018.61 1018.71 1019.30 1018.98 1018.89 1018.71 1018.65 1018.84 1018.50 1018.54 1018.54 1018.51
1003.21 1003.82 1004.22 1004.53 1004.80 1005.20 1005.72 1006.73 1007.55 1009.62 1010.23 1010.95 1011.56 1011.95 1012.35 1012.74 1013.31 1013.91 1014.34 1014.73 1015.18 1015.53 1015.80 1016.24 1016.63 1016.95 1017.50 1017.84 1018.00 1018.26 1017.93 1017.98 1018.16 1018.08 1018.16 1018.66 1018.77 1018.58 1018.53 1018.79 1018.70 1018.63 1018.46 1019.23 1018.95 1018.50 1018.60 1018.41 1018.25
1003.68 1004.02 1004.67 1004.78 1005.12 1005.38 1005.77 1006.85 1008.22 1009.68 1010.26 1010.80 1011.30 1011.80 1012.22 1012.69 1013.29 1013.68 1014.11 1014.50 1014.91 1015.22 1015.63 1016.08 1016.37 1016.55 1017.23 1017.57 1017.77 1017.87 1017.83 1017.70 1017.71 1017.74 1018.10 1018.40 1018.58 1018.55 1018.60 1019.04 1018.59 1018.86 1019.01 1018.96 1018.65 1018.48 1018.39 1018.33 1017.85
1003.15 1003.55 1003.75 1004.71 1005.24 1005.68 1005.81 1006.89 1008.63 1009.48 1009.80 1010.39 1011.07 1011.66 1012.19 1012.64 1013.05 1013.51 1013.98 1014.29 1014.68 1015.11 1015.63 1016.01 1015.98 1016.21 1016.99 1017.32 1017.66 1017.85 1017.45 1017.40 1017.38 1017.50 1017.61 1017.73 1018.05 1018.31 1018.70 1018.61 1018.51 1018.33 1018.37 1018.18 1018.12 1017.97 1018.15 1018.19 1017.48
1002.84 1002.38 1002.78 1004.20 1004.95 1005.22 1005.16 1006.49 1008.27 1009.07 1009.34 1009.90 1010.66 1011.23 1011.76 1012.23 1012.79 1013.16 1013.65 1014.14 1014.47 1014.90 1015.33 1015.62 1015.90 1016.13 1016.45 1016.74 1016.99 1017.06 1017.12 1017.25 1017.06 1017.13 1017.19 1017.30 1017.90 1018.01 1018.26 1018.43 1018.21 1018.27 1017.96 1017.83 1017.84 1017.55 1017.51 1017.44 1017.50
1001.90 1001.69 1002.71 1003.32 1004.38 1005.17 1005.13 1006.22 1007.63 1008.60 1008.78 1009.30 1009.96 1010.60 1011.19 1011.60 1012.09 1012.78 1013.39 1013.84 1014.10 1014.52 1015.04 1015.52 1015.81 1016.25 1016.58 1016.48 1016.72 1016.96 1017.18 1017.16 1017.40 1017.34 1017.38 1017.34 1017.32 1017.46 1017.54 1017.39 1017.51 1017.64 1017.53 1017.47 1017.40 1017.15 1016.92 1016.83 1016.76
1001.49 1002.04 1002.25 1003.15 1003.83 1004.67 1005.04 1006.27 1007.22 1007.94 1008.44 1008.64 1009.20 1010.10 1010.49 1010.98 1011.51 1012.26 1013.11 1013.60 1013.91 1014.25 1014.81 1015.36 1015.87 1016.30 1016.46 1016.66 1016.81 1016.90 1016.76 1016.89 1016.79 1016.69 1016.59 1016.66 1016.77 1016.98 1017.19 1017.28 1017.02 1017.04 1016.93 1016.56 1016.61 1016.72 1016.71 1016.39 1016.16
1001.89 1001.92 1002.13 1003.41 1004.33 1004.65 1005.22 1005.96 1006.98 1007.65 1007.83 1008.44 1008.79 1009.49 1009.90 1010.46 1011.16 1012.06 1012.67 1013.14 1013.50 1014.01 1014.61 1015.18 1015.69 1016.02 1016.28 1016.21 1016.61 1016.74 1016.75 1016.30 1016.19 1016.58 1016.72 1016.65 1016.64 1016.73 1016.78 1016.78 1016.55 1016.42 1016.29 1016.35 1016.42 1016.35 1016.11 1015.69 1015.78
1001.74 1001.75 1002.07 1002.90 1004.40 1004.61 1005.17 1005.72 1006.71 1007.36 1007.81 1008.17 1008.74 1009.00 1009.49 1010.02 1010.57 1011.29 1012.02 1012.68 1013.16 1013.75 1014.44 1014.96 1015.51 1015.91 1016.14 1016.35 1016.36 1016.35 1016.25 1015.97 1015.56 1015.55 1015.81 1015.96 1016.65 1016.66 1016.71 1016.58 1016.39 1016.31 1016.43 1016.18 1015.96 1016.17 1016.03 1015.44 1015.14
1001.08 1002.03 1002.26 1002.87 1004.07 1003.60 1004.65 1003.40 1005.11 1006.12 1007.14 1007.58 1007.95 1008.73 1009.05 1009.71 1010.21 1010.63 1011.38 1012.18 1012.80 1013.63 1014.25 1014.96 1015.46 1015.90 1016.23 1016.39 1016.30 1016.47 1016.15 1016.04 1016.05 1016.23 1016.27 1016.66 1016.44 1016.48 1016.39 1016.28 1016.12 1015.97 1016.00 1016.04 1015.90 1015.75 1015.74 1015.59 1015.00
1001.81 1002.48 1002.66 1003.07 1003.59 1003.47 1004.34 1004.21 1003.30 1004.96 1005.65 1006.16 1006.86 1007.56 1008.52 1009.17 1009.70 1010.11 1010.76 1011.74 1012.69 1013.64 1014.11 1014.80 1015.45 1015.87 1016.17 1016.34 1016.43 1016.17 1016.22 1016.05 1016.34 1016.48 1016.70 1016.66 1016.34 1016.27 1016.13 1016.06 1015.99 1015.86 1015.65 1015.69 1015.89 1015.73 1015.47 1015.39 1015.17
1002.57 1002.89 1003.24 1003.23 1002.97 1003.08 1002.89 1003.55 1002.59 1002.84 1004.13 1004.73 1005.74 1006.66 1007.80 1008.55 1009.22 1009.79 1010.53 1011.63 1012.88 1013.49 1014.00 1014.54 1015.31 1015.78 1016.10 1016.24 1016.35 1016.44 1016.49 1016.56 1016.48 1016.49 1016.48 1016.06 1015.96 1015.86 1015.86 1016.15 1016.07 1015.85 1015.80 1015.49 1015.43 1015.36 1015.21 1014.87 1014.78
1001.98 1002.13 1002.15 1002.49 1002.64 1002.35 1003.21 1003.25 1002.70 1002.52 1003.62 1003.74 1004.31 1005.66 1006.90 1008.08 1008.84 1009.51 1010.30 1011.72 1012.62 1013.31 1013.81 1014.41 1015.15 1015.65 1015.92 1015.99 1016.14 1016.32 1016.49 1016.64 1016.55 1016.50 1015.93 1016.36 1015.74 1015.70 1015.88 1016.31 1016.07 1015.76 1015.59 1015.34 1015.13 1015.02 1015.01 1014.83 1014.51
1001.25 1001.17 1000.80 1001.38 1001.35 1001.96 1003.58 1002.65 1002.25 1003.06 1003.32 1003.64 1004.19 1004.70 1006.12 1007.49 1008.33 1009.22 1010.34 1011.46 1012.27 1012.96 1013.64 1014.23 1014.84 1015.26 1015.54 1015.74 1016.12 1016.36 1016.45 1016.12 1016.23 1016.13 1016.36 1016.00 1015.96 1015.83 1016.16 1016.05 1015.81 1015.58 1015.37 1015.15 1014.98 1014.76 1014.24 1014.06 1014.05
1000.90 1001.30 1000.95 1001.22 1002.05 1002.26 1001.66 1002.20 1002.57 1002.94 1003.35 1003.82 1004.13 1004.54 1005.34 1007.05 1007.87 1008.86 1009.99 1011.07 1011.85 1012.59 1013.32 1014.03 1014.53 1014.97 1015.26 1015.43 1015.90 1016.09 1016.17 1016.27 1016.24 1016.38 1016.35 1015.80 1016.13 1015.72 1015.57 1015.64 1015.48 1015.37 1015.18 1014.99 1014.78 1014.22 1014.06 1013.89 1013.67
1000.67 1000.53 1001.13 1001.10 1001.18 1001.39 1001.08 1001.63 1001.12 1002.05 1002.30 1002.99 1003.68 1004.20 1004.95 1006.66 1007.54 1008.39 1009.37 1010.63 1011.40 1012.16 1012.97 1013.68 1014.23 1014.63 1014.94 1015.18 1015.50 1015.53 1015.73 1015.90 1016.09 1016.13 1016.08 1015.96 1015.87 1015.80 1015.64 1015.38 1015.14 1014.99 1014.83 1014.69 1014.52 1014.08 1013.85 1013.82 1013.48
1000.78 1000.52 1000.69 1000.46 1001.32 1000.90 1000.69 1000.27 1001.04 1001.61 1001.96 1002.41 1003.06 1003.92 1004.77 1005.92 1006.87 1007.72 1008.77 1010.15 1011.04 1011.69 1012.50 1013.24 1013.86 1014.28 1014.60 1014.87 1015.19 1015.40 1015.48 1015.58 1015.77 1015.74 1015.66 1015.58 1015.56 1015.54 1015.38 1015.12 1014.89 1014.67 1014.50 1014.27 1014.32 1014.16 1013.68 1013.51 1013.10
999.11 999.40 999.95 1000.20 1000.91 1001.17 1001.42 1000.73 1001.03 1001.44 1001.83 1002.27 1002.70 1003.52 1004.41 1005.22 1006.18 1007.17 1008.20 1009.56 1010.49 1011.23 1011.95 1012.68 1013.25 1013.64 1013.93 1014.36 1014.89 1015.10 1015.30 1015.41 1015.42 1015.41 1015.32 1015.21 1015.15 1015.15 1015.03 1014.86 1014.68 1014.40 1014.08 1013.94 1013.97 1013.81 1013.67 1013.41 1013.02
Wind_Speed
8 6 5 6 5 11 17 17 15 12 12 12 7 9 17 13 12 14 15 14 14 12 13 12 9 12 14 15 15 15 16 15 15 15 15 13 13 13 13 13 12 11 10 10 9 9 9 8 7
4 3 6 6 11 14 12 14 15 15 14 12 10 8 11 17 15 17 16 16 15 12 12 14 11 13 15 14 14 14 16 15 14 14 14 13 12 12 11 12 12 10 10 9 8 8 7 6 6
4 4 7 6 12 15 13 13 14 14 8 6 8 13 8 10 15 13 17 16 14 11 11 14 11 13 15 15 16 15 14 14 14 13 12 12 11 12 12 11 11 9 9 7 6 7 6 4 4
3 5 7 10 18 15 16 14 12 11 11 14 15 15 11 15 7 14 18 16 14 13 12 13 12 13 14 14 15 15 14 13 13 12 12 12 11 10 11 9 9 8 7 6 5 5 4 2 2
4 6 8 12 15 16 14 10 6 12 9 9 14 13 15 8 13 19 17 16 15 14 12 13 11 12 12 12 14 15 14 13 12 11 11 10 10 8 8 7 6 6 5 4 4 3 2 2 1
6 5 9 12 14 13 12 9 12 14 14 17 22 19 9 11 19 17 16 14 14 14 14 13 11 12 11 13 12 13 13 13 12 11 10 9 8 7 5 4 4 3 3 2 2 2 2 1 3
6 3 10 13 13 11 9 5 11 14 13 15 14 11 7 13 17 16 14 12 12 13 12 12 13 12 12 11 12 13 12 11 10 9 8 6 6 6 5 4 2 1 2 3 4 5 3 3 4
5 5 8 7 9 12 10 9 9 13 15 12 10 9 12 13 18 16 14 13 14 11 10 7 8 11 10 10 10 11 12 11 9 8 7 6 6 5 6 3 6 3 5 6 6 9 6 5 4
4 6 8 8 8 11 12 12 8 9 12 5 3 11 23 22 19 16 14 12 11 10 11 12 11 9 8 9 9 9 8 9 8 8 7 7 8 8 10 4 2 4 6 7 7 9 8 5 9
9 5 9 7 7 11 7 8 10 10 12 11 13 19 23 22 19 17 16 14 14 13 11 9 9 10 9 7 9 7 8 8 8 8 7 8 5 4 8 6 2 6 8 8 8 6 8 9 7
1 12 6 6 6 11 13 10 6 6 9 10 16 22 22 21 18 16 15 14 12 11 10 10 7 9 9 6 6 5 5 5 6 7 7 7 4 6 5 5 5 5 8 7 8 6 7 4 4
7 8 10 10 9 11 13 13 15 16 12 16 19 19 18 18 16 15 14 14 13 12 10 9 9 7 7 5 6 6 5 5 5 6 7 6 5 5 5 5 5 4 5 5 6 4 6 7 6
14 12 11 10 10 13 14 15 14 17 16 19 18 16 15 13 13 12 12 12 12 12 11 10 9 8 8 7 5 5 4 5 6 5 6 7 7 5 6 6 6 6 6 7 5 6 5 6 7
10 14 14 12 13 15 16 13 13 12 15 16 15 15 13 12 11 10 11 12 12 11 11 10 11 10 9 7 6 5 5 5 6 6 6 7 8 6 7 5 7 6 7 6 8 6 7 7 6
16 16 12 12 8 15 15 14 15 13 13 14 14 12 11 10 10 10 10 10 10 10 10 10 10 10 9 9 7 7 7 6 7 7 8 10 9 10 8 8 8 5 6 9 8 8 7 8 8
12 14 12 10 13 7 9 13 11 13 12 12 13 11 10 10 10 8 8 7 8 7 8 8 7 8 9 8 6 5 8 7 7 7 8 10 11 11 6 7 8 8 7 8 8 8 7 8 10
13 12 11 13 13 2 9 14 13 12 11 12 12 12 10 10 9 9 8 8 8 8 7 8 7 8 8 9 8 8 8 7 8 8 7 10 8 9 7 6 8 8 9 9 9 10 9 8 8
15 11 12 12 14 9 5 13 14 13 13 13 11 10 10 10 10 9 8 6 7 7 8 6 6 6 6 4 5 4 6 5 6 6 8 11 9 11 8 8 10 9 10 10 10 11 10 10 10
13 16 13 10 5 10 6 13 14 14 12 12 13 12 11 11 9 9 9 9 8 7 7 6 6 5 4 4 4 5 5 5 6 7 8 9 6 7 7 6 9 9 10 11 10 10 12 11 11
12 12 11 6 6 12 8 11 12 12 13 12 12 13 12 12 11 10 10 9 8 7 6 6 6 6 6 4 1 3 3 4 5 3 4 4 5 5 6 7 7 8 9 10 11 11 11 11 8
14 15 12 13 9 11 8 10 13 13 11 11 10 11 11 12 13 12 11 10 9 7 7 6 5 5 4 2 3 3 5 6 5 2 5 4 6 6 6 8 9 9 8 10 10 9 12 11 10
14 10 13 15 15 12 16 10 18 18 16 16 16 14 13 13 12 13 13 11 10 8 7 7 7 6 5 3 1 3 5 5 6 5 5 7 6 7 7 7 8 9 8 9 9 7 9 10 11
7 8 9 12 18 7 13 10 5 16 18 20 18 18 15 15 14 14 14 12 11 10 10 10 8 6 5 3 3 4 3 3 4 5 6 6 5 6 7 6 7 8 7 7 9 8 10 9 10
13 13 7 9 7 11 12 12 12 11 18 19 19 19 18 16 16 15 14 14 12 10 10 9 9 6 4 2 1 2 2 3 5 4 6 4 4 4 2 6 7 8 8 9 9 10 11 11 10
13 15 9 10 9 10 5 7 13 1 5 12 19 21 20 18 17 16 17 15 14 12 11 9 8 6 5 3 1 1 2 3 5 5 5 6 4 4 4 6 6 7 8 9 9 9 11 10 11
17 15 6 8 9 5 3 8 6 2 4 10 11 17 20 19 18 18 17 15 15 13 11 9 9 7 5 4 3 3 4 5 5 3 5 5 5 4 4 5 6 7 8 8 8 9 10 11 10
11 10 6 2 3 8 7 6 9 8 8 9 10 13 21 19 19 20 19 16 15 13 12 10 9 7 5 4 3 4 4 5 5 5 5 4 4 4 4 6 6 6 7 8 8 9 9 10 11
8 11 9 9 7 9 6 6 2 5 7 8 13 15 18 19 19 19 18 16 15 14 12 11 9 8 6 5 5 4 4 4 4 5 6 6 6 6 8 8 8 7 7 6 7 8 9 10 11
8 11 9 6 5 8 6 4 7 2 2 5 9 14 17 20 20 19 18 16 15 13 13 11 10 8 7 5 5 4 5 4 4 5 6 6 7 7 8 9 9 9 10 8 8 9 10 12 13
15 18 16 10 11 6 8 8 5 4 3 3 4 11 16 20 20 18 18 17 16 15 13 11 10 9 7 5 5 5 5 5 5 6 8 7 8 8 9 10 10 11 11 9 9 9 11 13 15
Wind_Direction
212 213 273 244 126 85 84 91 104 122 93 74 78 58 75 22 357 95 126 126 132 140 129 147 130 130 130 130 130 126 125 127 124 123 126 131 125 120 121 114 109 113 111 104 102 106 110 114 119
189 242 237 245 88 86 90 99 78 83 98 105 84 120 66 72 88 116 131 136 140 141 145 134 133 132 130 129 132 131 134 132 127 126 131 129 124 119 113 106 106 104 101 100 101 106 112 120 119
224 261 272 68 62 77 87 80 96 104 110 95 107 68 62 101 117 123 126 137 137 133 132 116 129 126 126 128 130 135 138 136 130 128 127 123 126 120 116 113 107 103 98 98 103 101 105 119 124
224 199 219 73 86 75 94 94 106 108 92 87 109 90 85 111 106 127 136 137 132 136 137 129 133 129 137 136 137 141 140 137 133 132 130 129 128 120 115 114 108 102 101 100 88 82 73 67 88
244 248 110 94 86 94 96 100 103 89 90 109 113 105 110 96 122 136 140 148 141 127 132 138 135 131 125 124 137 141 140 141 134 132 132 132 127 119 113 107 106 109 104 86 75 74 79 31 358
223 252 117 97 100 110 104 86 103 101 102 101 111 118 74 121 140 142 149 146 130 131 134 133 130 130 133 140 145 136 137 141 144 143 140 134 131 131 129 126 120 107 85 52 15 346 339 293 291
306 286 83 104 116 129 116 104 97 114 115 117 132 109 118 158 145 147 149 142 126 137 124 139 137 129 134 140 145 139 142 146 147 145 141 142 146 152 157 158 181 246 313 312 314 298 304 291 277
290 274 153 126 132 116 131 112 116 105 94 120 145 152 155 162 153 152 148 145 144 141 142 140 145 150 158 149 140 146 153 156 157 158 158 166 177 186 199 208 201 260 288 298 305 310 316 297 282
270 227 113 111 126 124 140 130 96 99 112 80 110 138 132 158 156 155 156 155 139 161 158 162 161 160 158 155 145 162 166 172 181 189 190 198 233 190 191 189 79 269 282 292 297 303 309 302 246
256 89 58 9 81 122 127 105 122 134 126 101 109 109 138 152 161 164 165 161 168 161 170 166 174 154 169 166 152 179 181 197 205 207 207 234 253 276 324 327 271 269 269 275 267 273 281 248 327
89 77 129 86 83 115 119 102 104 149 99 137 142 139 147 156 164 171 171 169 173 172 177 167 172 163 186 159 186 183 190 207 198 226 230 240 270 236 239 270 239 253 199 264 215 218 240 351 281
126 73 100 95 123 128 100 98 70 60 65 107 136 140 149 161 169 174 178 174 177 183 185 176 174 185 194 169 201 193 207 210 230 212 226 251 245 245 259 288 309 273 276 302 273 292 315 284 269
113 99 104 122 121 112 104 87 92 85 99 119 129 141 153 161 167 173 181 180 184 189 188 185 188 189 196 205 201 245 227 206 244 230 229 261 267 260 262 319 283 295 288 269 257 266 282 296 275
117 118 117 118 123 122 114 119 112 106 118 126 140 146 153 155 156 159 180 186 193 197 195 196 200 198 202 218 214 243 227 267 237 258 254 234 260 268 278 247 268 273 269 305 296 296 293 285 288
133 130 138 134 137 129 124 97 100 130 137 138 142 149 144 145 149 162 171 182 189 193 194 204 211 208 205 218 221 227 241 238 253 252 242 255 256 249 260 264 285 281 291 284 260 267 257 262 269
172 163 162 161 163 151 260 115 134 150 144 141 147 152 159 161 162 163 168 181 173 210 195 210 214 209 204 223 222 240 251 252 254 257 257 244 246 256 264 263 266 269 259 267 265 262 257 255 254
184 185 199 164 193 169 272 123 145 162 158 151 167 165 175 172 180 174 174 190 175 193 188 206 203 217 212 210 231 234 242 244 250 250 266 284 283 265 253 237 250 257 262 272 266 261 252 260 266
189 218 189 188 186 209 215 114 151 167 166 163 167 173 179 185 178 176 184 189 192 197 196 202 200 199 208 230 226 249 257 275 281 269 262 267 271 271 261 251 252 252 252 252 251 258 254 252 257
194 220 194 198 158 209 202 151 160 165 176 166 166 177 186 188 169 169 181 190 195 191 182 186 181 176 219 219 240 244 262 269 280 293 278 277 273 257 260 259 253 248 256 266 266 252 246 254 241
234 212 210 128 196 221 156 173 165 176 178 182 175 177 187 179 177 185 190 194 192 175 174 171 181 183 209 217 253 285 291 284 303 272 270 291 299 290 277 280 280 278 281 270 267 262 259 251 236
206 216 204 216 181 214 171 183 191 191 188 185 204 193 189 189 187 188 194 198 193 172 167 160 173 191 214 216 185 206 234 224 253 301 311 10 302 293 283 279 275 277 266 275 271 263 254 259 245
195 223 251 194 192 207 206 233 190 192 202 200 193 199 194 188 191 185 186 187 185 164 158 146 149 143 140 179 159 6 308 309 1 301 331 303 295 306 299 289 284 280 287 281 276 271 259 259 255
86 140 162 186 212 159 187 261 100 189 207 207 206 193 201 193 188 187 183 166 160 158 151 143 137 137 140 136 343 293 313 346 337 325 320 306 295 303 313 318 309 297 283 279 271 276 268 260 264
130 126 133 193 197 222 227 220 262 183 231 216 200 204 195 194 191 187 178 154 163 160 153 145 147 149 137 140 106 29 3 339 318 342 301 308 297 305 329 328 315 311 303 293 294 288 280 274 262
181 173 177 201 199 245 86 238 260 298 189 237 204 201 191 194 196 189 175 174 170 170 160 152 158 161 174 182 121 200 274 280 273 304 323 317 320 328 354 319 320 315 316 300 295 292 282 272 277
203 205 245 210 235 227 138 239 240 351 307 217 235 203 196 193 193 190 177 180 176 172 166 165 175 172 182 175 183 218 240 275 282 286 319 305 319 316 328 302 307 312 311 305 298 285 293 292 278
169 216 310 318 255 269 232 187 266 206 227 215 223 219 194 190 189 188 181 181 177 174 171 176 178 186 192 206 208 235 251 258 316 291 282 284 283 302 286 305 303 303 315 311 309 285 298 295 282
241 182 196 216 259 252 175 256 241 180 227 214 218 210 191 190 192 189 184 183 180 178 171 181 186 194 203 221 244 258 266 244 275 282 283 285 286 281 293 296 290 293 299 316 319 318 313 308 302
178 205 231 309 322 301 246 184 114 326 158 204 209 202 194 191 195 193 187 183 183 179 175 185 195 203 212 222 255 261 253 259 268 281 279 275 275 277 286 296 299 293 292 296 313 314 314 324 315
222 214 197 226 180 227 310 304 113 177 172 213 215 195 198 197 195 195 185 186 183 183 182 191 203 215 224 243 245 249 245 252 267 276 282 283 275 278 290 298 293 288 285 284 291 300 315 316 316